Weather in Filippovka

Russia / Ulyanovsk Oblast     53°59′58″N   49°45′46″E
temp.,
°C
wind,
m/s
gust,
m/s
humid.,
%
clouds,
%
prec.,
mm/h
press.,
hPa
HPBL,
m
16 may, sun
sun1601:00+20s4114220 0.0 1018164
04:00+19s410475 0.0 1018151
07:00+20s511545 0.0 1018268
10:00+26ssw610355 0.0 1018611
13:00+30ssw711285 0.0 10182578
16:00+29ssw6113136 0.0 10172635
19:00+26sw2244100 0.0 101714
22:00+22sse344451 0.0 101736
17 may, mon
mon1701:00+19s474714 0.0 101797
04:00+20ssw4104798 0.0 1018169
07:00+21s4115497 0.0 1018277
10:00+27ssw473848 0.0 1018499
13:00+30sw452868 0.0 10182103
16:00+31wsw442613 0.0 10182543
19:00+25se6114314 0.0 1018222
22:00+22sse333628 0.0 101824
18 may, tue
tue1801:00+19wsw115023 0.0 101811
04:00+18se11495 0.0 101811
07:00+21ese235380 0.0 101991
10:00+27se223569 0.0 1018464
13:00+30sse23236 0.0 10182478
16:00+30ese22202 0.0 10172662
19:00+28ese11335 0.0 101711
22:00+21ene34485 0.0 101755
19 may, wed
wed1901:00+18e411705 0.0 1017217
04:00+18e5127246 0.0 1017253
07:00+19e512687 0.0 1017360
10:00+24ese68496 0.0 1017687
13:00+27ese67400 0.0 10161181
16:00+28ese56380 0.0 10161550
19:00+25ese611490 0.0 1014402
22:00+22se716560 0.0 1015518
20 may, thu
thu2001:00+20se816550 0.0 1015540
04:00+18se613551 0.1 1015366
07:00+18sse7136199 0.0 1016553
10:00+20s586585 0.1 1016790
13:00+15sse51187100 1.7 1018490
16:00+20s7106978 2.0 10171193
19:00+19sse61069100 0.8 1016611
22:00+15ssw47784 1.1 1018119